Regional Weather Roundup
Issued by NWS

Home | Current Version | Previous Version | Graphics & Text | Print | Product List | Glossary On
Versions: 1 2 3 4 5 6 7 8 9 10 11 12 13 14 15 16 17 18 19 20 21 22 23 24 25 26 27 28 29 30 31 32 33 34 35 36 37 38 39 40 41 42 43 44 45 46 47 48 49 50
129
ASUS44 KMEG 070910
RWRTN
TENNESSEE HOURLY STATE WEATHER ROUNDUP
NATIONAL WEATHER SERVICE MEMPHIS TN
300 AM CST SUN FEB 07 2016

TNZ002-004-019-021-049-052-054-088>092-071000-
WEST TENNESSEE

CITY           SKY/WX    TMP DP  RH WIND       PRES   REMARKS
MEMPHIS INTL   CLEAR     31  24  75 CALM      30.25F
NWS MEMPHIS      N/A     29 N/A N/A MISG        N/A
JACKSON        CLEAR     26  22  84 CALM      30.25S
DYERSBURG      CLEAR     32  25  74 CALM      30.25F
UNION CITY     CLEAR     27  21  80 CALM      30.22S
PARIS          CLEAR     30  19  64 CALM      30.22F
LEXINGTON      CLEAR     25  21  86 CALM      30.22F
$$

TNZ008-025-027-028-033-062-065-066-071000-
NORTH MIDDLE TENNESSEE

CITY           SKY/WX    TMP DP  RH WIND       PRES   REMARKS
NASHVILLE      CLEAR     31  23  72 CALM      30.22F
CLARKSVILLE    CLEAR     28  24  85 CALM      30.22F
SMYRNA         CLEAR     25  24  96 CALM      30.24F
COOKEVILLE     CLEAR     21  19  93 CALM      30.19F
CROSSVILLE     CLEAR     28  21  75 CALM      30.17F
$$

TNZ061-075-076-078-094-096-097-071000-
SOUTH MIDDLE TENNESSEE

CITY           SKY/WX    TMP DP  RH WIND       PRES   REMARKS
FAYETTEVILLE   PTCLDY    32  23  69 CALM      30.21S
TULLAHOMA      CLEAR     25  23  93 CALM      30.21S
WINCHESTER     CLEAR     27  25  93 CALM      30.22S
MCMINNVILLE    CLEAR     27  25  93 CALM      30.20F
COLUMBIA       CLEAR     28  28 100 CALM      30.20F
SHELBYVILLE    CLEAR     27  25  93 SE3       30.23S
$$

TNZ017-018-042-046-047-071000-
NORTHEAST TENNESSEE

CITY           SKY/WX    TMP DP  RH WIND       PRES   REMARKS
TRI CITIES     CLEAR     23  21  92 E3        30.18F
$$

TNZ012-013-036-069-073-074-071000-
CENTRAL EAST TENNESSEE

CITY           SKY/WX    TMP DP  RH WIND       PRES   REMARKS
KNOXVILLE      PTCLDY    28  24  85 CALM      30.18F
OAK RIDGE      CLEAR     29  25  85 CALM      30.21F
GATLINBURG       N/A     21  18  86 CALM      30.18F
MORRISTOWN     MOSUNNY   28  23  80 CALM      30.16F
$$

TNZ083-085-099-071000-
SOUTHEAST TENNESSEE

CITY           SKY/WX    TMP DP  RH WIND       PRES   REMARKS
CHATTANOOGA    CLEAR     30  25  81 CALM      30.20F
$$

SKY/WX REPORTED AS FAIR MEANS FEW OR NO CLOUDS BELOW
12 THOUSAND FEET.





USA.gov is the U.S. government's official web portal to all federal, state and local government web resources and services.